Flag for Canada Weather past 2 weeks in Pictou County, Nova Scotia, Canada

Now
65 °F

Mild.


Feels Like: 65 °F
Forecast: 62 / 70 °F
Wind: 12 mph from Northeast

Location: Caribou Point

Current Time: Aug 21, 2014 at 9:47:05 PM

Latest Report: Aug 21, 2014 at 8:00 PM


Visibility: N/A

Pressure: 30.11 "Hg

Humidity: 83%

Dew point: 60 °F

Location of Pictou CountyLocation

Historic Weather in Pictou County — Graph

°F

Pictou County temperature yesterday

Maximum temperature yesterday: 68 °F (at 12:00 PM)
Minimum temperature yesterday: 61 °F (at 6:00 AM)
Average temperature yesterday: 65 °F

Past Weeks' High & Low Weather Summary

 TemperatureHumidityPressure
High75 °F (Aug 16, 2:00 PM)98% (Aug 16, 12:00 AM)30.17 "Hg (Aug 16, 12:00 AM)
Low59 °F (Aug 17, 5:00 AM)48% (Aug 16, 2:00 PM)29.53 "Hg (Aug 18, 3:00 PM)
Average66 °F83%29.91 "Hg
* Reported Aug 7 9:00 AM — Aug 21 8:00 PM, Pictou County, Weather by CustomWeather, © 2014

Note: Actual official high and low records may vary slightly from our data, if they occured in-between our weather recording intervals... More about our weather records

Advertising

Pictou County weather history for previous 24 hours

 ConditionsComfort  
Time TempWeatherWind HumidityBarometerVisibility
8:00 PM
Aug 21
65 °FMild.12 mph83%30.11 "HgN/A
7:00 PM66 °FMild.12 mph83%30.10 "HgN/A
6:00 PM68 °FMild.7 mph78%30.10 "HgN/A
5:00 PM69 °FMild.5 mph78%30.10 "HgN/A
4:00 PM68 °FMild.6 mph81%30.09 "HgN/A
3:00 PM68 °FMild.10 mph79%30.09 "HgN/A
2:00 PM68 °FMild.15 mph80%30.09 "HgN/A
1:00 PM68 °FMild.14 mph81%30.10 "HgN/A
12:00 PM68 °FMild.9 mph82%30.11 "HgN/A
11:00 AM67 °FMild.14 mph86%30.10 "HgN/A
10:00 AM67 °FMild.8 mph81%30.10 "HgN/A
9:00 AM66 °FMild.9 mph83%30.09 "HgN/A
8:00 AM65 °FMild.13 mph83%30.09 "HgN/A
7:00 AM64 °FMild.15 mph85%30.07 "HgN/A
6:00 AM63 °FMild.14 mph87%30.06 "HgN/A
5:00 AM63 °FMild.13 mph86%30.05 "HgN/A
4:00 AM63 °FMild.12 mph85%30.05 "HgN/A
3:00 AM63 °FMild.12 mph84%30.05 "HgN/A
2:00 AM63 °FMild.12 mph78%30.05 "HgN/A
1:00 AM63 °FMild.10 mph84%30.06 "HgN/A
12:00 AM63 °FMild.9 mph83%30.06 "HgN/A
11:00 PM
Aug 20
63 °FMild.10 mph83%30.05 "HgN/A
10:00 PM64 °FMild.10 mph82%30.04 "HgN/A
9:00 PM65 °FMild.9 mph78%30.04 "HgN/A
Weather by CustomWeather, © 2014

See weather overviewHow to use our weather pages